Погода в Иту

Бразилия     23°15′53″S   47°17′14″W
темп.,
°C
ветер,
м/с
пор.,
м/с
влажн.,
%
обл.,
%
осадки,
мм/ч
давл.,
гПа
погр.,
м
21 января, чт
чт2100:00+21юв41090100 4.9 1015345
03:00+21юв3693100 7.3 1014226
06:00+19в2293100 0.0 101542
09:00+24св4771100 0.0 1016806
12:00+28с4559100 0.0 10151442
15:00+29с2352100 0.0 10141657
18:00+25вюв3676100 0.9 1014166
21:00+22юв4882100 1.6 1016175
22 января, пт
пт2200:00+20юв3591100 0.3 1017123
03:00+20юв2392100 0.8 101667
06:00+20в2290100 2.0 101757
09:00+24св4672100 2.6 1019592
12:00+28ссв3552100 0.8 10181778
15:00+30св344573 0.9 10162139
18:00+25юв586997 0.0 1016309
21:00+23юв4106798 0.1 1018324
23 января, сб
сб2300:00+21вюв238160 0.0 101987
03:00+20юв228376 0.0 101763
06:00+19в228761 0.0 101729
09:00+24св356780 0.0 1018684
12:00+27ссз3357100 0.0 10171164
15:00+29сз115280 0.3 10151707
18:00+25юв477462 0.9 1014253
21:00+21вюв368262 1.1 1016118
24 января, вс
вс2400:00+20вюв238589 0.0 101662
03:00+20в238688 0.0 101552
06:00+19св2286100 0.0 101546
09:00+24с4670100 0.0 1016685
12:00+28ссз4557100 0.0 10151280
15:00+28сз345197 0.1 10121661
18:00+26ссв1265100 0.1 101231
21:00+22вюв2377100 0.3 101463
25 января, пн
пн2500:00+21вюв2280100 0.1 101439
03:00+20вюв1179100 0.1 101224
06:00+19всв228462 0.0 101424
09:00+25ссв356973 0.0 1014605
12:00+28ссз5657100 0.0 10131506
15:00+29ссз4555100 0.1 10101779
18:00+28св126393 0.4 101130
21:00+23всв127497 0.7 101226